EW8400 Weather Reports


time (UTC)temp
C
wind
direction
speed
KPH
gust
KPH
rain 1hr
cm
rain 24hr
cm
rain mn
cm
humidity
%
barometer
mb
20190822180120 23 291 0.0 0.0 0.00 0.00 0.00 60 1023.4
20190822174527 24 291 0.0 6.4 0.00 0.00 0.00 51 1023.4
20190822173051 25 283 0.0 4.8 0.00 0.00 0.00 50 1023.3
20190822171636 25 271 0.0 6.4 0.00 0.00 0.00 46 1023.2
20190822170104 25 294 0.0 12.9 0.00 0.00 0.00 46 1023.2
20190822164544 25 304 0.0 6.4 0.00 0.00 0.00 44 1023.2
20190822163120 25 296 0.0 11.3 0.00 0.00 0.00 45 1023.3
20190822161532 26 281 1.6 6.4 0.00 0.00 0.00 44 1023.3
20190822160113 26 293 4.8 16.1 0.00 0.00 0.00 43 1023.2
20190822154538 26 261 0.0 4.8 0.00 0.00 0.00 45 1023.2
20190822153033 26 202 0.0 4.8 0.00 0.00 0.00 45 1023.2
20190822151539 26 257 0.0 11.3 0.00 0.00 0.00 46 1023.3
20190822150026 26 250 0.0 8.0 0.00 0.00 0.00 47 1023.3
20190822144526 26 273 8.0 16.1 0.00 0.00 0.00 43 1023.4
20190822143043 26 219 1.6 6.4 0.00 0.00 0.00 46 1023.4
20190822141527 26 233 3.2 12.9 0.00 0.00 0.00 44 1023.4
20190822140013 26 314 3.2 12.9 0.00 0.00 0.00 44 1023.5
20190822134519 25 202 1.6 16.1 0.00 0.00 0.00 44 1023.5
20190822133028 25 355 3.2 17.7 0.00 0.00 0.00 46 1023.7
20190822131509 25 302 6.4 14.5 0.00 0.00 0.00 45 1023.8
20190822130003 25 231 1.6 17.7 0.00 0.00 0.00 47 1023.8
20190822124728 25 200 3.2 9.7 0.00 0.00 0.00 44 1024.0
20190822123210 25 313 4.8 16.1 0.00 0.00 0.00 45 1024.0
20190822121713 25 237 3.2 20.9 0.00 0.00 0.00 46 1024.1
20190822120221 25 215 3.2 9.7 0.00 0.00 0.00 47 1024.2
20190822114609 25 315 3.2 17.7 0.00 0.00 0.00 49 1024.2
20190822113118 25 300 1.6 14.5 0.00 0.00 0.00 51 1024.3
20190822111630 24 313 1.6 17.7 0.00 0.00 0.00 50 1024.3
20190822110253 25 219 1.6 12.9 0.00 0.00 0.00 48 1024.3
20190822104608 25 200 3.2 12.9 0.00 0.00 0.00 49 1024.4
20190822103145 24 318 1.6 9.7 0.00 0.00 0.00 49 1024.6
20190822101553 24 312 3.2 8.0 0.00 0.00 0.00 51 1024.7
20190822100059 24 311 1.6 6.4 0.00 0.00 0.00 53 1024.7
20190822094609 23 216 1.6 6.4 0.00 0.00 0.00 53 1024.7
20190822093119 22 314 1.6 4.8 0.00 0.00 0.00 57 1024.7
20190822091600 21 204 0.0 6.4 0.00 0.00 0.00 63 1024.8
20190822090018 21 216 0.0 4.8 0.00 0.00 0.00 68 1024.9
20190822084533 20 175 0.0 3.2 0.00 0.00 0.00 71 1025.0
20190822083013 18 278 0.0 4.8 0.00 0.00 0.00 75 1025.0
20190822081503 17 267 0.0 3.2 0.00 0.00 0.00 80 1025.1
20190822080211 15 303 0.0 1.6 0.00 0.00 0.00 84 1025.1
20190822074648 14 303 0.0 1.6 0.00 0.03 0.00 87 1025.0
20190822073135 13 308 0.0 0.0 0.00 0.03 0.00 87 1025.1
20190822071636 12 308 0.0 0.0 0.00 0.03 0.00 87 1025.1
20190822070119 11 308 0.0 0.0 0.00 0.03 0.00 87 1025.2
20190822064629 11 308 0.0 0.0 0.00 0.03 0.00 87 1025.2
20190822063315 10 308 0.0 0.0 0.00 0.03 0.00 87 1025.1
20190822061554 10 308 0.0 0.0 0.00 0.03 0.00 87 1025.1
20190822060046 10 308 0.0 0.0 0.00 0.03 0.00 87 1025.1
20190822054710 8 309 0.0 0.0 0.00 0.03 0.00 86 1024.9
20190822053047 8 303 0.0 0.0 0.00 0.03 0.00 86 1024.8
20190822051630 8 303 0.0 0.0 0.00 0.03 0.00 86 1024.7
20190822050056 8 303 0.0 0.0 0.00 0.03 0.00 86 1024.7
20190822044556 8 303 0.0 0.0 0.00 0.03 0.00 86 1024.7
20190822043109 8 303 0.0 0.0 0.00 0.03 0.00 86 1024.8
20190822041617 8 303 0.0 0.0 0.00 0.03 0.00 86 1024.9
20190822040106 8 303 0.0 0.0 0.00 0.03 0.00 86 1024.9
20190822034536 8 303 0.0 0.0 0.00 0.03 0.00 86 1025.0
20190822033112 8 303 0.0 0.0 0.00 0.03 0.00 86 1025.0
20190822031533 8 303 0.0 0.0 0.00 0.03 0.00 86 1025.1
20190822030046 8 303 0.0 0.0 0.00 0.03 0.00 86 1025.2
20190822024533 8 303 0.0 0.0 0.00 0.03 0.00 86 1025.2
20190822023031 8 303 0.0 0.0 0.00 0.03 0.00 86 1025.2
20190822021545 8 303 0.0 0.0 0.00 0.03 0.00 85 1025.2
20190822020023 8 303 0.0 0.0 0.00 0.03 0.00 85 1025.3
20190822014519 8 303 0.0 0.0 0.00 0.03 0.00 85 1025.4
20190822013031 8 302 0.0 0.0 0.00 0.03 0.00 85 1025.5
20190822011525 8 302 0.0 0.0 0.00 0.03 0.00 85 1025.5
20190822010009 8 322 0.0 0.0 0.00 0.03 0.00 85 1025.5
20190822004527 8 322 0.0 0.0 0.00 0.03 0.00 85 1025.6
20190822003007 8 322 0.0 0.0 0.00 0.03 0.00 85 1025.7
20190822001505 9 322 0.0 0.0 0.00 0.03 0.00 85 1025.7
20190822000019 9 322 0.0 0.0 0.00 0.03 0.00 85 1025.8
20190821234645 9 322 0.0 0.0 0.00 0.03 0.00 85 1025.9
20190821233155 9 322 0.0 0.0 0.00 0.03 0.00 85 1026.0
20190821231707 10 322 0.0 0.0 0.00 0.03 0.00 84 1026.1
20190821230211 10 322 0.0 0.0 0.00 0.03 0.00 84 1026.1
20190821224735 10 322 0.0 0.0 0.00 0.03 0.00 84 1026.1
20190821223144 10 322 0.0 0.0 0.00 0.03 0.00 84 1026.3
20190821221659 10 322 0.0 0.0 0.00 0.03 0.00 84 1026.4
20190821220212 11 322 0.0 0.0 0.00 0.03 0.00 84 1026.5
20190821214628 11 322 0.0 0.0 0.00 0.03 0.03 83 1026.4
20190821213148 11 322 0.0 0.0 0.00 0.03 0.03 83 1026.5
20190821211651 12 322 0.0 0.0 0.00 0.03 0.03 83 1026.4
20190821210113 12 322 0.0 0.0 0.00 0.03 0.03 83 1026.4
20190821204614 12 322 0.0 0.0 0.00 0.03 0.03 83 1026.4
20190821203120 13 322 0.0 0.0 0.00 0.03 0.03 82 1026.5
20190821201725 13 322 0.0 0.0 0.00 0.03 0.03 82 1026.3
20190821200159 14 322 0.0 0.0 0.00 0.03 0.03 81 1026.4
20190821194633 15 322 0.0 0.0 0.00 0.05 0.03 81 1026.3
20190821193133 15 322 0.0 0.0 0.00 0.05 0.03 80 1026.3
20190821191635 16 322 0.0 0.0 0.00 0.05 0.03 80 1026.4
20190821190103 17 322 0.0 0.0 0.00 0.05 0.03 78 1026.2
20190821184626 17 322 0.0 0.0 0.00 0.05 0.03 76 1026.2
20190821183200 18 322 0.0 0.0 0.00 0.05 0.03 70 1026.1
20190821181631 19 322 0.0 0.0 0.00 0.05 0.03 75 1026.2